Regional Weather Roundup
Issued by NWS Sioux Falls, SD

Home | Current Version | Previous Version | Text Only | Print | Product List | Glossary Off
Versions: 1 2 3 4 5 6 7 8 9 10 11 12 13 14 15 16 17 18 19 20 21 22 23 24 25 26 27 28 29 30 31 32 33 34 35 36 37 38 39 40 41 42 43 44 45 46 47 48 49 50

040
ASUS43 KFSD 081102
RWRFSD

WEATHER ROUNDUP FOR SE SOUTH DAKOTA/SW MINNESOTA/NW IOWA
NATIONAL WEATHER SERVICE SIOUX FALLS SD
500 AM CST MON FEB 08 2016

NOTE: "FAIR" INDICATES FEW OR NO CLOUDS BELOW 12,000 FEET WITH NO
SIGNIFICANT WEATHER AND OR OBSTRUCTIONS TO VISIBILITY.


SDZ038>040-050-052>070-081200-
SOUTHEAST SOUTH DAKOTA

CITY           SKY/WX    TMP DP  RH WIND       PRES   REMARKS
BROOKINGS      LGT SNOW  18  13  80 N28G36    29.97R WCI  -1
CHAMBERLAIN    NOT AVBL
HURON          CLOUDY    25  19  78 N24G32    30.10R WCI   9
MADISON        LGT RAIN  19  19 100 N30G39    30.00S WCI   0
MITCHELL       CLOUDY    27  19  72 NW28G39   30.10R WCI  11
SIOUX FALLS    LGT SNOW  21  16  81 N24G32    30.01R BLWGSNOWWCI   4
WINNER         FAIR      27  16  63 NW25G33   30.19R WCI  12
YANKTON        CLOUDY    28  18  64 NW24G38   30.06R WCI  14
$$

MNZ071-072-080-081-089-090-097-098-081200-
SOUTHWEST MINNESOTA

CITY           SKY/WX    TMP DP  RH WIND       PRES   REMARKS
FAIRMONT       CLOUDY   N/A N/A N/A NW30G43   29.84S VSB 3/4
JACKSON          N/A     14  10  85 NW43G58   29.87F WCI -10
LUVERNE        CLOUDY    21  16  79 N20G28    29.98R WCI   6
MARSHALL       SNOW      15  11  83 N30G43    29.96S VSB 1/2 WCI  -5
MONTEVIDEO     LGT SNOW  14  12  92 N23G32    29.99R WCI  -5
PIPESTONE      CLOUDY    18  10  73 N28G39    29.96R WCI  -1
REDWOOD FALLS  LGT SNOW  13   8  81 N20G33    29.94R WCI  -5
TRACY          SNOW      15  13  90 N31G44    29.96R VSB 1/2 WCI  -5
WINDOM         HVY SNOW  12  10  92 NW39G52   29.89R VSB 1/4 WCI -12
WORTHINGTON    CLOUDY    16  10  79 NW26G35   29.93S WCI  -3
$$

IAZ001>003-012>014-020>022-031-032-NEZ013-014-SDZ071-081200-
NORTHWEST IOWA

CITY           SKY/WX    TMP DP  RH WIND       PRES   REMARKS
ESTHERVILLE    FOG       13  10  88 NW36G44   29.88R VSB 1/4 WCI -10
SIOUX CITY     FLURRIES  27  17  66 N38G46    30.01R WCI   9
SPENCER        LGT SNOW  16  10  77 NW32G40   29.91S WCI  -5
STORM LAKE     LGT SNOW  18  14  86 NW38G47   29.91S WCI  -4
$$

ABBREVIATIONS USED IN REMARKS
   TC - TEMPERATURE IN CELSIUS
  WCI - WIND CHILL INDEX
   HX - HEAT INDEX
  VSB - VISIBILITY





USA.gov is the U.S. government's official web portal to all federal, state and local government web resources and services.